VE6TS-4 Weather Reports


time (UTC)temp
C
wind
direction
speed
KPH
gust
KPH
rain 1hr
cm
rain 24hr
cm
rain mn
cm
humidity
%
barometer
mb
20260507032804 -17 315 1.6 3.2 0.00 0.00 0.00 33 1010.6
20260506163505 -17 270 12.9 14.5 0.00 0.00 0.00 30 1013.8
20260506153628 -17 270 11.3 14.5 0.00 0.00 0.00 30 1014.7
20260506152806 -17 270 3.2 12.9 0.00 0.00 0.00 31 1014.7
20260506151122 -17 270 6.4 14.5 0.00 0.00 0.00 30 1015.0
20260506144615 -17 0 9.7 12.9 0.00 0.00 0.00 30 1015.4
20260506143753 -17 0 12.9 12.9 0.00 0.00 0.00 30 1015.6
20260506142108 -17 0 0.0 0.0 0.00 0.00 0.00 30 1015.8
20260506141245 -17 0 0.0 0.0 0.00 0.00 0.00 30 1015.9
20260506140422 -17 0 0.0 0.0 0.00 0.00 0.00 30 1016.0
20260506134739 -17 0 0.0 0.0 0.00 0.00 0.00 30 1016.3
20260506133054 -17 0 0.0 0.0 0.00 0.00 0.00 30 1016.3
20260506132232 -17 0 0.0 0.0 0.00 0.00 0.00 30 1016.3
20260506131409 -17 0 0.0 0.0 0.00 0.00 0.00 30 1016.6
20260506125725 -17 0 0.0 0.0 0.00 0.00 0.00 30 1016.5
20260506124040 -17 0 0.0 0.0 0.00 0.00 0.00 30 1016.7
20260506123218 -17 0 0.0 0.0 0.00 0.00 0.00 30 1016.8
20260506114204 -17 0 0.0 0.0 0.00 0.00 0.00 30 1017.0
20260506113343 -17 0 0.0 0.0 0.00 0.00 0.00 30 1017.2
20260506111657 -17 0 0.0 0.0 0.00 0.00 0.00 30 1017.2
20260506103506 -17 0 0.0 0.0 0.00 0.00 0.00 30 1017.8
20260506102643 -17 0 0.0 0.0 0.00 0.00 0.00 30 1017.8
20260506095314 -17 0 0.0 0.0 0.00 0.00 0.00 30 1018.2
20260506094452 -17 0 0.0 0.0 0.00 0.00 0.00 30 1018.5
20260506093629 -17 0 0.0 0.0 0.00 0.00 0.00 30 1018.5
20260506085438 -17 0 0.0 0.0 0.00 0.00 0.00 30 1019.0
20260506084616 -17 0 0.0 0.0 0.00 0.00 0.00 30 1019.1
20260506083753 -17 0 0.0 0.0 0.00 0.00 0.00 30 1019.2
20260506082931 -17 0 0.0 0.0 0.00 0.00 0.00 30 1019.2
20260506081246 -17 0 0.0 0.0 0.00 0.00 0.00 30 1019.5
20260506073055 -17 0 1.6 8.0 0.00 0.00 0.00 30 1019.8
20260506062356 -17 0 0.0 0.0 0.00 0.00 0.00 30 1020.4